,,Stat6,,Stat2,,Stat8,,Stat9,,Stat10,,Wind1,,Wind1,
time,status,PA1M_AVG,status,PR1M_SUM,status,RH1M_AVG,status,SR1M_AVG,status,TA1M_AVG,status,W1dAve1m,status,W1sAve1m,
2004-09-17, 00:00:00,VALID,918.992,VALID,0,VALID,97.0501,VALID,-0.118866,VALID,18.8395,VALID,70,VALID,1.15916,
2004-09-17, 00:01:00,VALID,918.988,VALID,0,VALID,97.059,VALID,-0.135847,VALID,18.8361,VALID,75,VALID,1.09784,
2004-09-17, 00:02:00,VALID,918.985,VALID,0,VALID,97.1748,VALID,-0.118866,VALID,18.8651,VALID,91,VALID,0.931944,
2004-09-17, 00:03:00,VALID,918.978,VALID,0,VALID,97.0692,VALID,-0.118866,VALID,18.9071,VALID,86,VALID,0.707775,
2004-09-17, 00:04:00,VALID,918.981,VALID,0,VALID,96.9064,VALID,-0.118866,VALID,18.9327,VALID,88,VALID,0.855114,
2004-09-17, 00:05:00,VALID,918.967,VALID,0,VALID,96.5593,VALID,-0.101885,VALID,18.9451,VALID,72,VALID,0.490141,
2004-09-17, 00:06:00,VALID,918.969,VALID,0,VALID,96.5148,VALID,-0.101885,VALID,18.9417,VALID,84,VALID,0.721807,
2004-09-17, 00:07:00,VALID,918.967,VALID,0,VALID,96.6241,VALID,-0.118866,VALID,18.9488,VALID,114,VALID,0.802827,
2004-09-17, 00:08:00,VALID,918.949,VALID,0,VALID,96.6801,VALID,-0.152827,VALID,18.9592,VALID,125,VALID,1.04241,
2004-09-17, 00:09:00,VALID,918.944,VALID,0,VALID,96.5339,VALID,-0.118866,VALID,18.9399,VALID,118,VALID,0.912064,
2004-09-17, 00:10:00,VALID,918.927,VALID,0,VALID,96.8162,VALID,-0.0849042,VALID,18.9098,VALID,146,VALID,0.802782,
2004-09-17, 00:11:00,VALID,918.911,VALID,0,VALID,96.9497,VALID,-0.0169808,VALID,18.9057,VALID,130,VALID,0.476935,
2004-09-17, 00:12:00,VALID,918.91,VALID,0,VALID,96.7729,VALID,-0.0169808,VALID,18.8893,VALID,94,VALID,0.49782,
2004-09-17, 00:13:00,VALID,918.905,VALID,0,VALID,96.8238,VALID,-0.0339617,VALID,18.8572,VALID,111,VALID,0.917969,
2004-09-17, 00:14:00,VALID,918.902,VALID,0,VALID,97.0222,VALID,-0.0169808,VALID,18.8505,VALID,148,VALID,0.928544,
2004-09-17, 00:15:00,VALID,918.888,VALID,0,VALID,97.2256,VALID,-0.0509425,VALID,18.8736,VALID,149,VALID,1.17299,
2004-09-17, 00:16:00,VALID,918.882,VALID,0,VALID,97.087,VALID,-0.0679233,VALID,18.8766,VALID,111,VALID,0.919212,
2004-09-17, 00:17:00,VALID,918.88,VALID,0,VALID,96.8899,VALID,-0.0849042,VALID,18.8443,VALID,94,VALID,0.855841,
2004-09-17, 00:18:00,VALID,918.867,VALID,0,VALID,96.9446,VALID,-0.0509425,VALID,18.8346,VALID,81,VALID,0.721012,
2004-09-17, 00:19:00,VALID,918.847,VALID,0,VALID,97.0018,VALID,-0.0509425,VALID,18.7894,VALID,122,VALID,0.911399,
2004-09-17, 00:20:00,VALID,918.844,VALID,0,VALID,97.0705,VALID,-0.101885,VALID,18.8026,VALID,114,VALID,0.779948,
2004-09-17, 00:21:00,VALID,918.825,VALID,0,VALID,97.0463,VALID,-0.0169808,VALID,18.7865,VALID,147,VALID,0.831836,
2004-09-17, 00:22:00,VALID,918.831,VALID,0,VALID,97.2663,VALID,-0.0849042,VALID,18.7996,VALID,150,VALID,1.129,
2004-09-17, 00:23:00,VALID,918.821,VALID,0,VALID,97.0234,VALID,-0.0169808,VALID,18.8157,VALID,129,VALID,1.01349,
2004-09-17, 00:24:00,VALID,918.814,VALID,0,VALID,97.0489,VALID,-0.0679233,VALID,18.8148,VALID,156,VALID,1.0498,
2004-09-17, 00:25:00,VALID,918.81,VALID,0,VALID,97.1315,VALID,-0.0509425,VALID,18.8545,VALID,153,VALID,0.864757,
2004-09-17, 00:26:00,VALID,918.805,VALID,0,VALID,97.0311,VALID,-0.0849042,VALID,18.8935,VALID,155,VALID,0.974609,
2004-09-17, 00:27:00,VALID,918.809,VALID,0,VALID,97.0018,VALID,-0.0849042,VALID,18.8928,VALID,151,VALID,1.02362,
2004-09-17, 00:28:00,VALID,918.801,VALID,0,VALID,96.9777,VALID,-0.0679233,VALID,18.8995,VALID,156,VALID,1.05642,
2004-09-17, 00:29:00,VALID,918.799,VALID,0,VALID,96.923,VALID,-0.0339617,VALID,18.8965,VALID,146,VALID,0.982465,
2004-09-17, 00:30:00,VALID,918.786,VALID,0,VALID,96.9586,VALID,-0.0679233,VALID,18.8898,VALID,157,VALID,0.918555,
2004-09-17, 00:31:00,VALID,918.764,VALID,0,VALID,97.0425,VALID,-0.0849042,VALID,18.8702,VALID,162,VALID,0.471094,
2004-09-17, 00:32:00,VALID,918.772,VALID,0,VALID,97.0679,VALID,-0.0849042,VALID,18.8706,VALID,147,VALID,0.524346,
2004-09-17, 00:33:00,VALID,918.755,VALID,0,VALID,96.9865,VALID,-0.0679233,VALID,18.8312,VALID,120,VALID,0.592448,
2004-09-17, 00:34:00,VALID,918.756,VALID,0,VALID,96.8492,VALID,-0.0339617,VALID,18.8058,VALID,126,VALID,0.254764,
2004-09-17, 00:35:00,VALID,918.755,VALID,0,VALID,96.9217,VALID,-0.0339617,VALID,18.7738,VALID,111,VALID,0.461293,
2004-09-17, 00:36:00,VALID,918.741,VALID,0,VALID,97.0959,VALID,-0.0509425,VALID,18.7507,VALID,132,VALID,0.69093,
2004-09-17, 00:37:00,VALID,918.743,VALID,0,VALID,97.2536,VALID,-0.0849042,VALID,18.7542,VALID,149,VALID,0.686257,
2004-09-17, 00:38:00,VALID,918.74,VALID,0,VALID,97.204,VALID,-0.0169808,VALID,18.7639,VALID,151,VALID,0.635045,
2004-09-17, 00:39:00,VALID,918.721,VALID,0,VALID,97.1366,VALID,-0.0509425,VALID,18.7701,VALID,174,VALID,0.105469,
2004-09-17, 00:40:00,VALID,918.711,VALID,0,VALID,97.0463,VALID,-0.0169808,VALID,18.7857,VALID,185,VALID,0.573219,
2004-09-17, 00:41:00,VALID,918.693,VALID,0,VALID,96.9713,VALID,0,VALID,18.8346,VALID,214,VALID,0.59933,
2004-09-17, 00:42:00,VALID,918.698,VALID,0,VALID,96.75,VALID,-0.0339617,VALID,18.89,VALID,212,VALID,0.621094,
2004-09-17, 00:43:00,VALID,918.682,VALID,0,VALID,96.4487,VALID,0,VALID,18.9057,VALID,211,VALID,0.652344,
2004-09-17, 00:44:00,VALID,918.668,VALID,0,VALID,96.1943,VALID,-0.0509425,VALID,18.9578,VALID,230,VALID,0.612645,
2004-09-17, 00:45:00,VALID,918.661,VALID,0,VALID,96.0239,VALID,-0.0169808,VALID,18.9772,VALID,226,VALID,0.670139,
2004-09-17, 00:46:00,VALID,918.651,VALID,0,VALID,95.7989,VALID,-0.0509425,VALID,19.0122,VALID,237,VALID,0.672991,
2004-09-17, 00:47:00,VALID,918.632,VALID,0,VALID,95.4772,VALID,-0.0339617,VALID,19.0614,VALID,232,VALID,0.905678,
2004-09-17, 00:48:00,VALID,918.628,VALID,0,VALID,95.1147,VALID,-0.0169808,VALID,19.0994,VALID,232,VALID,0.559956,
2004-09-17, 00:49:00,VALID,918.62,VALID,0,VALID,94.69,VALID,-0.0169808,VALID,19.1354,VALID,234,VALID,0.556127,
2004-09-17, 00:50:00,VALID,918.619,VALID,0,VALID,94.4294,VALID,-0.0169808,VALID,19.1672,VALID,234,VALID,0.171875,
2004-09-17, 00:51:00,VALID,918.622,VALID,0,VALID,94.203,VALID,-0.0509425,VALID,19.1836,VALID,234,VALID,0,
2004-09-17, 00:52:00,VALID,918.622,VALID,0,VALID,93.9907,VALID,-0.0339617,VALID,19.1841,VALID,234,VALID,0,
2004-09-17, 00:53:00,VALID,918.628,VALID,0,VALID,93.6575,VALID,-0.0509425,VALID,19.1483,VALID,234,VALID,0,
2004-09-17, 00:54:00,VALID,918.629,VALID,0,VALID,93.9067,VALID,-0.0849042,VALID,19.0773,VALID,234,VALID,0,
2004-09-17, 00:55:00,VALID,918.63,VALID,0,VALID,94.3327,VALID,-0.0339617,VALID,19.0087,VALID,234,VALID,0,
2004-09-17, 00:56:00,VALID,918.633,VALID,0,VALID,94.3187,VALID,-0.0169808,VALID,18.9645,VALID,234,VALID,0.0743963,
2004-09-17, 00:57:00,VALID,918.624,VALID,0,VALID,94.3251,VALID,-0.0169808,VALID,18.8505,VALID,251,VALID,0.402778,
2004-09-17, 00:58:00,VALID,918.63,VALID,0,VALID,94.7676,VALID,-0.0849042,VALID,18.7604,VALID,328,VALID,0.461128,
2004-09-17, 00:59:00,VALID,918.641,VALID,0,VALID,95.2495,VALID,-0.0339617,VALID,18.6772,VALID,336,VALID,0.448264,
2004-09-17, 01:00:00,VALID,918.647,VALID,0,VALID,95.7887,VALID,-0.101885,VALID,18.6124,VALID,338,VALID,0.424924,
2004-09-17, 01:01:00,VALID,918.659,VALID,0,VALID,96.1448,VALID,-0.0509425,VALID,18.5798,VALID,338,VALID,0.0613281,
2004-09-17, 01:02:00,VALID,918.652,VALID,0,VALID,96.5542,VALID,0,VALID,18.5895,VALID,338,VALID,0.341844,
2004-09-17, 01:03:00,VALID,918.649,VALID,0,VALID,96.9077,VALID,-0.0169808,VALID,18.6352,VALID,338,VALID,0.37391,
2004-09-17, 01:04:00,VALID,918.637,VALID,0,VALID,96.9688,VALID,-0.0679233,VALID,18.6896,VALID,338,VALID,0.282848,
2004-09-17, 01:05:00,VALID,918.62,VALID,0,VALID,96.8263,VALID,-0.0509425,VALID,18.7251,VALID,338,VALID,0.0828125,
2004-09-17, 01:06:00,VALID,918.606,VALID,0,VALID,96.7081,VALID,-0.0679233,VALID,18.7643,VALID,338,VALID,0,
2004-09-17, 01:07:00,VALID,918.593,VALID,0,VALID,96.1066,VALID,0,VALID,18.7442,VALID,338,VALID,0.0609375,
2004-09-17, 01:08:00,VALID,918.574,VALID,0,VALID,95.9095,VALID,-0.0679233,VALID,18.6998,VALID,338,VALID,0.341704,
2004-09-17, 01:09:00,VALID,918.564,VALID,0,VALID,95.6971,VALID,-0.0169808,VALID,18.6379,VALID,338,VALID,0.42152,
2004-09-17, 01:10:00,VALID,918.56,VALID,0,VALID,95.6959,VALID,-0.0169808,VALID,18.5669,VALID,338,VALID,0.459794,
2004-09-17, 01:11:00,VALID,918.555,VALID,0,VALID,95.8269,VALID,-0.0169808,VALID,18.4865,VALID,338,VALID,0.380729,
2004-09-17, 01:12:00,VALID,918.559,VALID,0,VALID,96.1206,VALID,-0.0169808,VALID,18.415,VALID,338,VALID,0.307478,
2004-09-17, 01:13:00,VALID,918.562,VALID,0,VALID,96.4766,VALID,-0.0339617,VALID,18.3797,VALID,339,VALID,0.456854,
2004-09-17, 01:14:00,VALID,918.572,VALID,0,VALID,97.0565,VALID,-0.0679233,VALID,18.3928,VALID,340,VALID,0.32492,
2004-09-17, 01:15:00,VALID,918.569,VALID,0,VALID,97.2383,VALID,-0.0339617,VALID,18.4092,VALID,340,VALID,0.307292,
2004-09-17, 01:16:00,VALID,918.561,VALID,0,VALID,97.2777,VALID,-0.0339617,VALID,18.3799,VALID,340,VALID,0.359197,
2004-09-17, 01:17:00,VALID,918.558,VALID,0,VALID,97.3159,VALID,-0.0339617,VALID,18.3668,VALID,340,VALID,0.449396,
2004-09-17, 01:18:00,VALID,918.548,VALID,0,VALID,97.4647,VALID,-0.0339617,VALID,18.3732,VALID,341,VALID,0.510719,
2004-09-17, 01:19:00,VALID,918.529,VALID,0,VALID,97.7419,VALID,-0.0169808,VALID,18.3894,VALID,341,VALID,0.492788,
2004-09-17, 01:20:00,VALID,918.508,VALID,0,VALID,97.9275,VALID,-0.0679233,VALID,18.409,VALID,341,VALID,0.54794,
2004-09-17, 01:21:00,VALID,918.487,VALID,0,VALID,97.9809,VALID,-0.0849042,VALID,18.4219,VALID,344,VALID,0.555778,
2004-09-17, 01:22:00,VALID,918.477,VALID,0,VALID,98.0598,VALID,-0.0169808,VALID,18.4348,VALID,346,VALID,0.582403,
2004-09-17, 01:23:00,VALID,918.454,VALID,0,VALID,98.1119,VALID,-0.0169808,VALID,18.4443,VALID,346,VALID,0.616997,
2004-09-17, 01:24:00,VALID,918.443,VALID,0,VALID,98.1691,VALID,-0.0169808,VALID,18.4539,VALID,28,VALID,0.650981,
2004-09-17, 01:25:00,VALID,918.448,VALID,0,VALID,98.234,VALID,-0.0509425,VALID,18.4696,VALID,38,VALID,0.492759,
2004-09-17, 01:26:00,VALID,918.443,VALID,0,VALID,98.1501,VALID,-0.0339617,VALID,18.5063,VALID,38,VALID,0.331854,
2004-09-17, 01:27:00,VALID,918.441,VALID,0,VALID,98.1157,VALID,-0.0509425,VALID,18.5287,VALID,38,VALID,0.305088,
2004-09-17, 01:28:00,VALID,918.45,VALID,0,VALID,97.939,VALID,-0.0169808,VALID,18.5319,VALID,38,VALID,0.230755,
2004-09-17, 01:29:00,VALID,918.443,VALID,0,VALID,97.8474,VALID,-0.0169808,VALID,18.525,VALID,38,VALID,0.17569,
2004-09-17, 01:30:00,VALID,918.44,VALID,0,VALID,97.6554,VALID,-0.0339617,VALID,18.5257,VALID,38,VALID,0.277521,
2004-09-17, 01:31:00,VALID,918.433,VALID,0,VALID,97.5206,VALID,-0.0679233,VALID,18.5088,VALID,38,VALID,0.196875,
2004-09-17, 01:32:00,VALID,918.424,VALID,0,VALID,97.4202,VALID,-0.0169808,VALID,18.4897,VALID,38,VALID,0.0219494,
2004-09-17, 01:33:00,VALID,918.424,VALID,0,VALID,97.2243,VALID,-0.0849042,VALID,18.474,VALID,38,VALID,0.000801282,
2004-09-17, 01:34:00,VALID,918.409,VALID,0,VALID,97.3579,VALID,-0.0339617,VALID,18.4641,VALID,38,VALID,0,
2004-09-17, 01:35:00,VALID,918.398,VALID,0,VALID,97.4901,VALID,-0.0339617,VALID,18.4703,VALID,38,VALID,0,
2004-09-17, 01:36:00,VALID,918.39,VALID,0,VALID,97.555,VALID,-0.0679233,VALID,18.4641,VALID,38,VALID,0,
2004-09-17, 01:37:00,VALID,918.393,VALID,0,VALID,97.6898,VALID,-0.0339617,VALID,18.4475,VALID,38,VALID,0,
2004-09-17, 01:38:00,VALID,918.386,VALID,0,VALID,97.8296,VALID,-0.0169808,VALID,18.4542,VALID,38,VALID,0,
2004-09-17, 01:39:00,VALID,918.396,VALID,0,VALID,97.986,VALID,-0.0509425,VALID,18.4544,VALID,38,VALID,0,
2004-09-17, 01:40:00,VALID,918.4,VALID,0,VALID,98.1157,VALID,-0.0339617,VALID,18.4671,VALID,38,VALID,0,
2004-09-17, 01:41:00,VALID,918.381,VALID,0,VALID,98.0916,VALID,-0.0509425,VALID,18.4869,VALID,38,VALID,0,
2004-09-17, 01:42:00,VALID,918.382,VALID,0,VALID,98.1488,VALID,-0.0339617,VALID,18.4927,VALID,38,VALID,0,
2004-09-17, 01:43:00,VALID,918.386,VALID,0,VALID,98.131,VALID,-0.0339617,VALID,18.512,VALID,38,VALID,0,
2004-09-17, 01:44:00,VALID,918.374,VALID,0,VALID,97.9606,VALID,-0.0339617,VALID,18.5222,VALID,38,VALID,0.0332031,
2004-09-17, 01:45:00,VALID,918.353,VALID,0,VALID,97.8741,VALID,-0.0169808,VALID,18.5056,VALID,38,VALID,0.272866,
2004-09-17, 01:46:00,VALID,918.351,VALID,0,VALID,97.8665,VALID,-0.0339617,VALID,18.4862,VALID,38,VALID,0.325218,
2004-09-17, 01:47:00,VALID,918.335,VALID,0,VALID,97.8169,VALID,-0.0509425,VALID,18.4871,VALID,38,VALID,0.293146,
2004-09-17, 01:48:00,VALID,918.325,VALID,0,VALID,97.8881,VALID,-0.0679233,VALID,18.4579,VALID,38,VALID,0.218564,
2004-09-17, 01:49:00,VALID,918.307,VALID,0,VALID,98.056,VALID,-0.0509425,VALID,18.4636,VALID,38,VALID,0.16915,
2004-09-17, 01:50:00,VALID,918.315,VALID,0,VALID,98.1768,VALID,-0.0849042,VALID,18.4899,VALID,38,VALID,0.201527,
2004-09-17, 01:51:00,VALID,918.315,VALID,0,VALID,98.2009,VALID,-0.0339617,VALID,18.542,VALID,38,VALID,0.257068,
2004-09-17, 01:52:00,VALID,918.301,VALID,0,VALID,98.1437,VALID,-0.0339617,VALID,18.5805,VALID,38,VALID,0.0106707,
2004-09-17, 01:53:00,VALID,918.297,VALID,0,VALID,97.9097,VALID,-0.0849042,VALID,18.5964,VALID,38,VALID,0,
2004-09-17, 01:54:00,VALID,918.297,VALID,0,VALID,97.6567,VALID,-0.0509425,VALID,18.5997,VALID,38,VALID,0,
2004-09-17, 01:55:00,VALID,918.303,VALID,0,VALID,97.382,VALID,-0.0679233,VALID,18.5738,VALID,38,VALID,0,
2004-09-17, 01:56:00,VALID,918.299,VALID,0,VALID,97.1684,VALID,-0.0339617,VALID,18.5612,VALID,38,VALID,0.0786701,
2004-09-17, 01:57:00,VALID,918.307,VALID,0,VALID,97.0107,VALID,-0.0339617,VALID,18.5125,VALID,38,VALID,0.511364,
2004-09-17, 01:58:00,VALID,918.318,VALID,0,VALID,97.0934,VALID,-0.0509425,VALID,18.4703,VALID,41,VALID,0.639915,
2004-09-17, 01:59:00,VALID,918.335,VALID,0,VALID,97.1722,VALID,-0.0679233,VALID,18.4286,VALID,42,VALID,0.47998,
2004-09-17, 02:00:00,VALID,918.344,VALID,0,VALID,97.2803,VALID,-0.0849042,VALID,18.3931,VALID,42,VALID,0.46946,
2004-09-17, 02:01:00,VALID,918.353,VALID,0,VALID,97.4443,VALID,-0.0509425,VALID,18.364,VALID,42,VALID,0.425586,
2004-09-17, 02:02:00,VALID,918.348,VALID,0,VALID,97.6236,VALID,-0.0509425,VALID,18.3582,VALID,42,VALID,0.314931,
2004-09-17, 02:03:00,VALID,918.358,VALID,0,VALID,97.7648,VALID,-0.101885,VALID,18.3449,VALID,42,VALID,0.223544,
2004-09-17, 02:04:00,VALID,918.359,VALID,0,VALID,97.794,VALID,-0.0339617,VALID,18.338,VALID,42,VALID,0.0215278,
2004-09-17, 02:05:00,VALID,918.36,VALID,0,VALID,97.7571,VALID,-0.0509425,VALID,18.3188,VALID,42,VALID,0.0345204,
2004-09-17, 02:06:00,VALID,918.366,VALID,0,VALID,97.9733,VALID,-0.0849042,VALID,18.3158,VALID,42,VALID,0.294588,
2004-09-17, 02:07:00,VALID,918.364,VALID,0,VALID,98.2187,VALID,-0.0339617,VALID,18.3347,VALID,42,VALID,0.281432,
2004-09-17, 02:08:00,VALID,918.361,VALID,0,VALID,98.234,VALID,-0.0679233,VALID,18.3806,VALID,42,VALID,0.111816,
2004-09-17, 02:09:00,VALID,918.348,VALID,0,VALID,98.117,VALID,-0.0679233,VALID,18.3926,VALID,42,VALID,0.169965,
2004-09-17, 02:10:00,VALID,918.358,VALID,0,VALID,97.953,VALID,-0.0169808,VALID,18.4057,VALID,50,VALID,0.444568,
2004-09-17, 02:11:00,VALID,918.343,VALID,0,VALID,97.8729,VALID,0,VALID,18.3924,VALID,121,VALID,0.796875,
2004-09-17, 02:12:00,VALID,918.356,VALID,0,VALID,98.0649,VALID,0,VALID,18.3857,VALID,146,VALID,1.01239,
2004-09-17, 02:13:00,VALID,918.344,VALID,0,VALID,98.281,VALID,-0.0169808,VALID,18.3924,VALID,142,VALID,0.927144,
2004-09-17, 02:14:00,VALID,918.341,VALID,0,VALID,98.2849,VALID,0,VALID,18.4085,VALID,141,VALID,0.895198,
2004-09-17, 02:15:00,VALID,918.346,VALID,0,VALID,98.2187,VALID,0,VALID,18.4217,VALID,137,VALID,0.771391,
2004-09-17, 02:16:00,VALID,918.332,VALID,0,VALID,98.1246,VALID,0,VALID,18.4281,VALID,132,VALID,0.584794,
2004-09-17, 02:17:00,VALID,918.325,VALID,0,VALID,98.07,VALID,0.0169808,VALID,18.4281,VALID,131,VALID,0.664063,
2004-09-17, 02:18:00,VALID,918.319,VALID,0,VALID,98.1641,VALID,0.0169808,VALID,18.4217,VALID,129,VALID,0.959339,
2004-09-17, 02:19:00,VALID,918.304,VALID,0,VALID,98.3065,VALID,0,VALID,18.4313,VALID,130,VALID,1.04324,
2004-09-17, 02:20:00,VALID,918.283,VALID,0,VALID,98.468,VALID,0,VALID,18.4369,VALID,136,VALID,1.03563,
2004-09-17, 02:21:00,VALID,918.284,VALID,0,VALID,98.5913,VALID,0,VALID,18.4507,VALID,138,VALID,0.981001,
2004-09-17, 02:22:00,VALID,918.278,VALID,0,VALID,98.6536,VALID,0,VALID,18.4436,VALID,135,VALID,0.964844,
2004-09-17, 02:23:00,VALID,918.272,VALID,0,VALID,98.7299,VALID,0.0169808,VALID,18.4502,VALID,128,VALID,0.943638,
2004-09-17, 02:24:00,VALID,918.277,VALID,0,VALID,98.7592,VALID,0,VALID,18.4505,VALID,124,VALID,0.748302,
2004-09-17, 02:25:00,VALID,918.279,VALID,0,VALID,98.6524,VALID,0.0169808,VALID,18.4274,VALID,118,VALID,0.341518,
2004-09-17, 02:26:00,VALID,918.281,VALID,0,VALID,98.5939,VALID,0.0169808,VALID,18.3986,VALID,117,VALID,0.471354,
2004-09-17, 02:27:00,VALID,918.282,VALID,0,VALID,98.791,VALID,0,VALID,18.4051,VALID,117,VALID,0.506214,
2004-09-17, 02:28:00,VALID,918.276,VALID,0,VALID,98.8571,VALID,0,VALID,18.4152,VALID,117,VALID,0.580469,
2004-09-17, 02:29:00,VALID,918.266,VALID,0,VALID,98.8965,VALID,0,VALID,18.4212,VALID,117,VALID,0.575068,
2004-09-17, 02:30:00,VALID,918.263,VALID,0,VALID,98.8253,VALID,0.0169808,VALID,18.4217,VALID,75,VALID,0.549419,
2004-09-17, 02:31:00,VALID,918.25,VALID,0,VALID,98.5315,VALID,0,VALID,18.3894,VALID,49,VALID,0.818638,
2004-09-17, 02:32:00,VALID,918.243,VALID,0,VALID,98.7617,VALID,0,VALID,18.3797,VALID,74,VALID,1.13244,
2004-09-17, 02:33:00,VALID,918.242,VALID,0,VALID,98.7846,VALID,-0.0339617,VALID,18.3984,VALID,96,VALID,1.26435,
2004-09-17, 02:34:00,VALID,918.245,VALID,0,VALID,98.6104,VALID,0,VALID,18.4348,VALID,94,VALID,1.09223,
2004-09-17, 02:35:00,VALID,918.244,VALID,0,VALID,98.3484,VALID,0.0339617,VALID,18.4666,VALID,82,VALID,0.994004,
2004-09-17, 02:36:00,VALID,918.251,VALID,0,VALID,98.1348,VALID,-0.0169808,VALID,18.4728,VALID,82,VALID,0.729167,
2004-09-17, 02:37:00,VALID,918.261,VALID,0,VALID,98.0216,VALID,0,VALID,18.486,VALID,90,VALID,0.859747,
2004-09-17, 02:38:00,VALID,918.249,VALID,0,VALID,97.9886,VALID,0,VALID,18.519,VALID,91,VALID,1.1436,
2004-09-17, 02:39:00,VALID,918.251,VALID,0,VALID,97.8487,VALID,0.0169808,VALID,18.5446,VALID,106,VALID,0.663504,
2004-09-17, 02:40:00,VALID,918.235,VALID,0,VALID,97.719,VALID,0,VALID,18.5476,VALID,122,VALID,1.02361,
2004-09-17, 02:41:00,VALID,918.229,VALID,0,VALID,97.7699,VALID,-0.0169808,VALID,18.5473,VALID,119,VALID,1.01882,
2004-09-17, 02:42:00,VALID,918.21,VALID,0,VALID,97.8512,VALID,-0.0169808,VALID,18.5545,VALID,118,VALID,1.04484,
2004-09-17, 02:43:00,VALID,918.215,VALID,0,VALID,97.8881,VALID,0.0169808,VALID,18.548,VALID,114,VALID,1.04386,
2004-09-17, 02:44:00,VALID,918.214,VALID,0,VALID,97.9237,VALID,0,VALID,18.5316,VALID,111,VALID,1.0849,
2004-09-17, 02:45:00,VALID,918.202,VALID,0,VALID,97.9987,VALID,0,VALID,18.5088,VALID,102,VALID,0.884055,
2004-09-17, 02:46:00,VALID,918.199,VALID,0,VALID,98.1526,VALID,0,VALID,18.4959,VALID,109,VALID,1.02162,
2004-09-17, 02:47:00,VALID,918.215,VALID,0,VALID,98.2302,VALID,0,VALID,18.4894,VALID,112,VALID,0.858108,
2004-09-17, 02:48:00,VALID,918.213,VALID,0,VALID,98.2747,VALID,0,VALID,18.4862,VALID,115,VALID,0.791481,
2004-09-17, 02:49:00,VALID,918.218,VALID,0,VALID,98.2836,VALID,0.0169808,VALID,18.4862,VALID,115,VALID,0.70827,
2004-09-17, 02:50:00,VALID,918.216,VALID,0,VALID,98.2989,VALID,0.0169808,VALID,18.4862,VALID,114,VALID,0.675967,
2004-09-17, 02:51:00,VALID,918.206,VALID,0,VALID,98.2938,VALID,0.0169808,VALID,18.4701,VALID,109,VALID,0.724019,
2004-09-17, 02:52:00,VALID,918.198,VALID,0,VALID,98.2836,VALID,0.0169808,VALID,18.4502,VALID,108,VALID,0.713867,
2004-09-17, 02:53:00,VALID,918.186,VALID,0,VALID,98.2823,VALID,0,VALID,18.4341,VALID,108,VALID,0.739644,
2004-09-17, 02:54:00,VALID,918.168,VALID,0,VALID,98.2836,VALID,0.0339617,VALID,18.4306,VALID,108,VALID,0.855097,
2004-09-17, 02:55:00,VALID,918.158,VALID,0,VALID,98.2721,VALID,0,VALID,18.4477,VALID,108,VALID,0.947266,
2004-09-17, 02:56:00,VALID,918.152,VALID,0,VALID,98.1666,VALID,0.0169808,VALID,18.4438,VALID,108,VALID,0.912791,
2004-09-17, 02:57:00,VALID,918.141,VALID,0,VALID,98.0433,VALID,0.0339617,VALID,18.4763,VALID,108,VALID,0.829527,
2004-09-17, 02:58:00,VALID,918.136,VALID,0,VALID,97.9085,VALID,0,VALID,18.4989,VALID,101,VALID,0.990189,
2004-09-17, 02:59:00,VALID,918.119,VALID,0,VALID,97.5753,VALID,0.0169808,VALID,18.5508,VALID,86,VALID,0.97619,
2004-09-17, 03:00:00,VALID,918.116,VALID,0,VALID,97.3248,VALID,0,VALID,18.5764,VALID,85,VALID,0.930831,
2004-09-17, 03:01:00,VALID,918.088,VALID,0,VALID,97.1658,VALID,0,VALID,18.6024,VALID,85,VALID,0.795277,
2004-09-17, 03:02:00,VALID,918.083,VALID,0,VALID,97.0552,VALID,0.0169808,VALID,18.6114,VALID,83,VALID,0.877668,
2004-09-17, 03:03:00,VALID,918.075,VALID,0,VALID,97.0018,VALID,0.0169808,VALID,18.6216,VALID,85,VALID,0.934956,
2004-09-17, 03:04:00,VALID,918.06,VALID,0,VALID,96.8759,VALID,0.0169808,VALID,18.634,VALID,87,VALID,0.839453,
2004-09-17, 03:05:00,VALID,918.041,VALID,0,VALID,96.7627,VALID,0,VALID,18.6541,VALID,86,VALID,0.74657,
2004-09-17, 03:06:00,VALID,918.026,VALID,0,VALID,96.7488,VALID,0,VALID,18.6635,VALID,93,VALID,0.808036,
2004-09-17, 03:07:00,VALID,918.022,VALID,0,VALID,96.6839,VALID,0,VALID,18.6762,VALID,111,VALID,0.860491,
2004-09-17, 03:08:00,VALID,918.016,VALID,0,VALID,96.4906,VALID,-0.0169808,VALID,18.6928,VALID,114,VALID,0.786204,
2004-09-17, 03:09:00,VALID,918.022,VALID,0,VALID,96.4601,VALID,0,VALID,18.6859,VALID,93,VALID,0.75657,
2004-09-17, 03:10:00,VALID,918.017,VALID,0,VALID,96.525,VALID,-0.0339617,VALID,18.6799,VALID,96,VALID,0.865663,
2004-09-17, 03:11:00,VALID,918.02,VALID,0,VALID,96.4665,VALID,-0.0849042,VALID,18.691,VALID,97,VALID,0.771307,
2004-09-17, 03:12:00,VALID,918.005,VALID,0,VALID,96.441,VALID,-0.101885,VALID,18.6712,VALID,95,VALID,0.643674,
2004-09-17, 03:13:00,VALID,917.993,VALID,0,VALID,96.7208,VALID,-0.101885,VALID,18.6357,VALID,87,VALID,1.02288,
2004-09-17, 03:14:00,VALID,917.983,VALID,0,VALID,96.6865,VALID,-0.101885,VALID,18.6546,VALID,87,VALID,0.787695,
2004-09-17, 03:15:00,VALID,917.966,VALID,0,VALID,96.6343,VALID,-0.101885,VALID,18.6518,VALID,90,VALID,0.667708,
2004-09-17, 03:16:00,VALID,917.955,VALID,0,VALID,96.7132,VALID,-0.101885,VALID,18.6587,VALID,90,VALID,0.606136,
2004-09-17, 03:17:00,VALID,917.934,VALID,0,VALID,96.7297,VALID,-0.101885,VALID,18.6354,VALID,98,VALID,0.717076,
2004-09-17, 03:18:00,VALID,917.929,VALID,0,VALID,96.7577,VALID,-0.101885,VALID,18.6359,VALID,96,VALID,0.724432,
2004-09-17, 03:19:00,VALID,917.898,VALID,0,VALID,96.7907,VALID,-0.101885,VALID,18.6232,VALID,97,VALID,0.557173,
2004-09-17, 03:20:00,VALID,917.88,VALID,0,VALID,96.8085,VALID,-0.118866,VALID,18.6071,VALID,97,VALID,0.514022,
2004-09-17, 03:21:00,VALID,917.879,VALID,0,VALID,96.8708,VALID,-0.101885,VALID,18.5808,VALID,97,VALID,0.448219,
2004-09-17, 03:22:00,VALID,917.862,VALID,0,VALID,96.9128,VALID,-0.101885,VALID,18.5623,VALID,97,VALID,0.588542,
2004-09-17, 03:23:00,VALID,917.863,VALID,0,VALID,97.0234,VALID,-0.101885,VALID,18.5388,VALID,100,VALID,0.778011,
2004-09-17, 03:24:00,VALID,917.859,VALID,0,VALID,97.1811,VALID,-0.101885,VALID,18.5038,VALID,104,VALID,0.988653,
2004-09-17, 03:25:00,VALID,917.859,VALID,0,VALID,97.3045,VALID,-0.0849042,VALID,18.4809,VALID,127,VALID,1.125,
2004-09-17, 03:26:00,VALID,917.875,VALID,0,VALID,97.4685,VALID,0.0169808,VALID,18.483,VALID,132,VALID,1.08067,
2004-09-17, 03:27:00,VALID,917.873,VALID,0,VALID,97.7762,VALID,0,VALID,18.4666,VALID,134,VALID,1.11566,
2004-09-17, 03:28:00,VALID,917.865,VALID,0,VALID,97.9301,VALID,0.0169808,VALID,18.4602,VALID,133,VALID,0.99782,
2004-09-17, 03:29:00,VALID,917.858,VALID,0,VALID,97.9619,VALID,0.0339617,VALID,18.4701,VALID,133,VALID,0.682031,
2004-09-17, 03:30:00,VALID,917.854,VALID,0,VALID,97.9631,VALID,0,VALID,18.4669,VALID,133,VALID,0.429688,
2004-09-17, 03:31:00,VALID,917.854,VALID,0,VALID,97.9568,VALID,0,VALID,18.4735,VALID,133,VALID,0.31343,
2004-09-17, 03:32:00,VALID,917.84,VALID,0,VALID,97.9288,VALID,0,VALID,18.4666,VALID,133,VALID,0.103966,